This is the latest recevied weather packets stored in our database for station/object NQ9F. If no packets are shown the sender has not sent any weather packets the latest 10 day(s).
| Time | Temp. | Humidity | Pressure | Rain* | Wind** | Luminosity | Snow |
|---|---|---|---|---|---|---|---|
| 1777410939 | 26.67° C | 87% | 1008.3 hPa | 0 mm | - | 22 W/m² | - |
| 1777408507 | 26.67° C | 87% | 1009.2 hPa | 0 mm | - | 51 W/m² | - |
| 1777407897 | 27.22° C | 86% | 1009.4 hPa | 0 mm | - | 69 W/m² | - |
| 1777407595 | 27.22° C | 85% | 1009 hPa | 0 mm | - | 119 W/m² | - |
| 1777406995 | 27.22° C | 85% | 1009.6 hPa | 0 mm | - | 67 W/m² | - |
| 1777406085 | 27.78° C | 84% | 1009.3 hPa | 0 mm | - | 300 W/m² | - |
| 1777405478 | 28.33° C | 79% | 1009.5 hPa | 0 mm | - | 257 W/m² | - |
| 1777404872 | 28.33° C | 80% | 1009.3 hPa | 0 mm | - | 450 W/m² | - |
| 1777404570 | 28.33° C | 79% | 1009 hPa | 0 mm | - | 275 W/m² | - |
| 1777404266 | 28.33° C | 79% | 1009.4 hPa | 0 mm | - | 382 W/m² | - |
| 1777403962 | 28.33° C | 80% | 1009.8 hPa | 0 mm | - | 205 W/m² | - |
| 1777403662 | 28.33° C | 79% | 1009.9 hPa | 0 mm | - | 402 W/m² | - |
| 1777403361 | 28.33° C | 80% | 1009.9 hPa | 0 mm | - | 152 W/m² | - |
| 1777403056 | 28.89° C | 77% | 1010 hPa | 0 mm | - | 819 W/m² | - |
| 1777401541 | 28.33° C | 79% | 1010.6 hPa | 0 mm | - | 297 W/m² | - |
| 1777398508 | 28.33° C | 82% | 1011.6 hPa | 0 mm | - | 484 W/m² | - |
| 1777397597 | 27.78° C | 82% | 1011.6 hPa | 0 mm | - | 945 W/m² | - |
| 1777397293 | 27.22° C | 84% | 1011.7 hPa | 0 mm | - | 400 W/m² | - |
| 1777396080 | 27.78° C | 84% | 1011.7 hPa | 0 mm | - | 422 W/m² | - |
| 1777393954 | 27.22° C | 84% | 1012.3 hPa | 0 mm | - | 571 W/m² | - |
| 1777393653 | 26.67° C | 84% | 1012.1 hPa | 0 mm | - | 316 W/m² | - |
| 1777393349 | 26.67° C | 84% | 1012.1 hPa | 0 mm | - | 604 W/m² | - |
| 1777392438 | 26.67° C | 85% | 1012.4 hPa | 0 mm | - | 240 W/m² | - |
| 1777392134 | 26.67° C | 85% | 1012.2 hPa | 0 mm | - | 455 W/m² | - |
| 1777391221 | 26.67° C | 86% | 1012.1 hPa | 0 mm | - | 326 W/m² | - |
* Rain latest hour (hover to see other rain measurements)
** Current wind speed in m/s (hover to see current wind gust speed)